| time (UTC) | temp F | wind direction | speed MPH | gust MPH | rain 1hr in | rain 24hr in | rain mn in | humidity % | barometer mb |
| 20260904103032 | 80 | 13 | 3.0 | 9.0 | 0.00 | 0.00 | 0.00 | 64 | 1014.1 |
| 20260904102032 | 80 | 326 | 1.0 | 12.0 | 0.00 | 0.00 | 0.00 | 64 | 1014.1 |
| 20260904101047 | 80 | 339 | 4.0 | 10.0 | 0.00 | 0.00 | 0.00 | 64 | 1013.9 |
| 20260904100032 | 80 | 333 | 4.0 | 13.0 | 0.00 | 0.00 | 0.00 | 64 | 1013.7 |
| 20260904095032 | 80 | 348 | 4.0 | 15.0 | 0.00 | 0.00 | 0.00 | 64 | 1013.7 |
| 20260904094032 | 80 | 336 | 4.0 | 10.0 | 0.00 | 0.00 | 0.00 | 64 | 1013.6 |
| 20260904093032 | 80 | 336 | 3.0 | 9.0 | 0.00 | 0.00 | 0.00 | 64 | 1013.6 |
| 20260904092032 | 80 | 315 | 6.0 | 12.0 | 0.00 | 0.00 | 0.00 | 64 | 1013.6 |
| 20260904091032 | 80 | 339 | 6.0 | 13.0 | 0.00 | 0.00 | 0.00 | 64 | 1013.9 |
| 20260904090030 | 80 | 339 | 4.0 | 7.0 | 0.00 | 0.00 | 0.00 | 64 | 1013.8 |
| 20260904085047 | 80 | 338 | 2.0 | 7.0 | 0.00 | 0.00 | 0.00 | 64 | 1013.8 |
| 20260904084032 | 80 | 357 | 3.0 | 9.0 | 0.00 | 0.00 | 0.00 | 63 | 1013.9 |
| 20260904083032 | 80 | 357 | 4.0 | 9.0 | 0.00 | 0.00 | 0.00 | 64 | 1014.2 |
| 20260904082049 | 80 | 348 | 1.0 | 6.0 | 0.00 | 0.00 | 0.00 | 64 | 1014.2 |
| 20260904081049 | 81 | 7 | 1.0 | 6.0 | 0.00 | 0.00 | 0.00 | 64 | 1014.3 |
| 20260904080049 | 81 | 13 | 1.0 | 6.0 | 0.00 | 0.00 | 0.00 | 64 | 1014.3 |
| 20260904075030 | 81 | 324 | 2.0 | 13.0 | 0.00 | 0.00 | 0.00 | 63 | 1014.3 |
| 20260904074030 | 81 | 316 | 8.0 | 15.0 | 0.00 | 0.00 | 0.00 | 63 | 1014.3 |
| 20260904073032 | 81 | 327 | 5.0 | 10.0 | 0.00 | 0.00 | 0.00 | 63 | 1014.3 |
| 20260904072049 | 81 | 28 | 2.0 | 7.0 | 0.00 | 0.00 | 0.00 | 62 | 1014.3 |
| 20260904071032 | 81 | 14 | 3.0 | 6.0 | 0.00 | 0.00 | 0.00 | 61 | 1014.4 |
| 20260904070032 | 81 | 342 | 4.0 | 9.0 | 0.00 | 0.00 | 0.01 | 61 | 1014.5 |
| 20260904065032 | 82 | 15 | 3.0 | 9.0 | 0.00 | 0.00 | 0.01 | 61 | 1014.5 |
| 20260904064030 | 82 | 351 | 4.0 | 10.0 | 0.00 | 0.00 | 0.01 | 61 | 1014.5 |
| 20260904063032 | 82 | 354 | 4.0 | 12.0 | 0.00 | 0.00 | 0.01 | 60 | 1014.4 |
| 20260904062032 | 82 | 355 | 3.0 | 7.0 | 0.00 | 0.00 | 0.01 | 59 | 1014.4 |
| 20260904061032 | 82 | 15 | 3.0 | 7.0 | 0.00 | 0.00 | 0.01 | 59 | 1014.5 |
| 20260904060032 | 82 | 347 | 4.0 | 15.0 | 0.00 | 0.00 | 0.01 | 58 | 1014.5 |
| 20260904055106 | 82 | 352 | 3.0 | 9.0 | 0.00 | 0.00 | 0.01 | 59 | 1014.5 |
| 20260904054030 | 82 | 11 | 2.0 | 9.0 | 0.00 | 0.00 | 0.01 | 59 | 1014.1 |
| 20260904053032 | 82 | 5 | 3.0 | 9.0 | 0.00 | 0.00 | 0.01 | 60 | 1014.1 |
| 20260904052032 | 81 | 331 | 4.0 | 12.0 | 0.00 | 0.00 | 0.01 | 62 | 1014.1 |
| 20260904051032 | 81 | 342 | 4.0 | 12.0 | 0.00 | 0.00 | 0.01 | 64 | 1014.5 |
| 20260904050107 | 81 | 329 | 3.0 | 9.0 | 0.00 | 0.00 | 0.01 | 65 | 1014.9 |
| 20260904045032 | 81 | 356 | 3.0 | 7.0 | 0.00 | 0.00 | 0.01 | 65 | 1014.9 |
| 20260904044032 | 82 | 8 | 4.0 | 9.0 | 0.00 | 0.00 | 0.01 | 64 | 1014.9 |
| 20260904043030 | 82 | 346 | 4.0 | 9.0 | 0.00 | 0.00 | 0.01 | 62 | 1014.6 |
| 20260904042032 | 84 | 335 | 4.0 | 13.0 | 0.00 | 0.00 | 0.00 | 58 | 1014.6 |
| 20260904041032 | 84 | 6 | 5.0 | 7.0 | 0.00 | 0.00 | 0.00 | 55 | 1014.6 |
| 20260904040032 | 84 | 352 | 4.0 | 10.0 | 0.00 | 0.00 | 0.00 | 55 | 1014.2 |
| 20260904035032 | 84 | 358 | 6.0 | 18.0 | 0.00 | 0.00 | 0.00 | 55 | 1014.2 |
| 20260904034032 | 84 | 329 | 6.0 | 15.0 | 0.00 | 0.00 | 0.00 | 55 | 1014.2 |
| 20260904033032 | 84 | 310 | 5.0 | 18.0 | 0.00 | 0.00 | 0.00 | 55 | 1013.7 |
| 20260904032030 | 84 | 6 | 5.0 | 12.0 | 0.00 | 0.00 | 0.00 | 54 | 1013.7 |
| 20260904031030 | 85 | 357 | 3.0 | 9.0 | 0.00 | 0.00 | 0.00 | 53 | 1013.8 |
| 20260904030032 | 85 | 322 | 3.0 | 7.0 | 0.00 | 0.00 | 0.00 | 53 | 1013.5 |
| 20260904025032 | 85 | 344 | 5.0 | 12.0 | 0.00 | 0.00 | 0.00 | 53 | 1013.5 |
| 20260904024106 | 85 | 351 | 5.0 | 7.0 | 0.00 | 0.00 | 0.00 | 52 | 1013.3 |
| 20260904023049 | 85 | 324 | 5.0 | 10.0 | 0.00 | 0.00 | 0.00 | 52 | 1013.3 |
| 20260904022032 | 85 | 340 | 6.0 | 10.0 | 0.00 | 0.00 | 0.00 | 52 | 1013.3 |
| 20260904021047 | 85 | 351 | 5.0 | 9.0 | 0.00 | 0.00 | 0.00 | 52 | 1013.5 |
| 20260904020030 | 86 | 340 | 6.0 | 13.0 | 0.00 | 0.00 | 0.00 | 51 | 1013.2 |
| 20260904015032 | 87 | 329 | 6.0 | 13.0 | 0.00 | 0.00 | 0.00 | 50 | 1013.2 |
| 20260904014032 | 87 | 322 | 5.0 | 13.0 | 0.00 | 0.00 | 0.00 | 50 | 1013.1 |
| 20260904013032 | 88 | 344 | 3.0 | 12.0 | 0.00 | 0.00 | 0.00 | 50 | 1012.7 |
| 20260904012032 | 88 | 331 | 4.0 | 9.0 | 0.00 | 0.00 | 0.00 | 50 | 1012.7 |
| 20260904011032 | 88 | 14 | 3.0 | 12.0 | 0.00 | 0.00 | 0.00 | 49 | 1012.5 |
| 20260904010030 | 88 | 339 | 1.0 | 7.0 | 0.00 | 0.00 | 0.00 | 50 | 1012.6 |
| 20260904005032 | 88 | 20 | 3.0 | 10.0 | 0.00 | 0.00 | 0.00 | 49 | 1012.6 |
| 20260904004032 | 89 | 357 | 2.0 | 6.0 | 0.00 | 0.00 | 0.00 | 49 | 1012.7 |
| 20260904003032 | 91 | 339 | 4.0 | 12.0 | 0.00 | 0.00 | 0.00 | 45 | 1012.2 |
| 20260904002032 | 93 | 335 | 3.0 | 9.0 | 0.00 | 0.00 | 0.00 | 41 | 1012.2 |
| 20260904001106 | 95 | 27 | 1.0 | 6.0 | 0.00 | 0.00 | 0.00 | 37 | 1012.0 |
| 20260904000032 | 94 | 73 | 1.0 | 9.0 | 0.00 | 0.00 | 0.00 | 36 | 1012.0 |
| 20260903235032 | 94 | 89 | 2.0 | 7.0 | 0.00 | 0.00 | 0.00 | 37 | 1012.0 |
| 20260903234032 | 93 | 296 | 1.0 | 9.0 | 0.00 | 0.00 | 0.00 | 38 | 1012.4 |
| 20260903233032 | 94 | 73 | 5.0 | 12.0 | 0.00 | 0.00 | 0.00 | 37 | 1012.2 |
| 20260903232032 | 94 | 281 | 2.0 | 7.0 | 0.00 | 0.00 | 0.00 | 38 | 1012.2 |
| 20260903231032 | 94 | 67 | 1.0 | 7.0 | 0.00 | 0.00 | 0.00 | 39 | 1012.1 |
| 20260903230032 | 94 | 280 | 3.0 | 12.0 | 0.00 | 0.00 | 0.00 | 39 | 1012.3 |
| 20260903225030 | 93 | 28 | 0.0 | 4.0 | 0.00 | 0.00 | 0.00 | 39 | 1012.3 |
| 20260903224030 | 93 | 271 | 2.0 | 10.0 | 0.00 | 0.00 | 0.00 | 40 | 1012.5 |
| 20260903223049 | 93 | 70 | 2.0 | 9.0 | 0.00 | 0.00 | 0.00 | 39 | 1012.6 |
| 20260903222032 | 93 | 69 | 2.0 | 9.0 | 0.00 | 0.00 | 0.00 | 39 | 1012.6 |
| 20260903221032 | 94 | 80 | 4.0 | 10.0 | 0.00 | 0.00 | 0.00 | 39 | 1012.6 |
| 20260903215032 | 93 | 79 | 2.0 | 9.0 | 0.00 | 0.00 | 0.00 | 41 | 1012.9 |
| 20260903214030 | 93 | 276 | 1.0 | 6.0 | 0.00 | 0.00 | 0.00 | 41 | 1013.1 |
| 20260903213032 | 92 | 77 | 2.0 | 6.0 | 0.00 | 0.00 | 0.00 | 41 | 1013.2 |
| 20260903212032 | 92 | 80 | 3.0 | 10.0 | 0.00 | 0.00 | 0.00 | 42 | 1013.2 |
| 20260903211032 | 92 | 291 | 2.0 | 7.0 | 0.00 | 0.00 | 0.00 | 43 | 1013.4 |
| 20260903210032 | 92 | 270 | 1.0 | 10.0 | 0.00 | 0.00 | 0.00 | 43 | 1013.7 |
| 20260903205032 | 91 | 277 | 1.0 | 7.0 | 0.00 | 0.00 | 0.00 | 44 | 1013.7 |
| 20260903204032 | 90 | 83 | 3.0 | 7.0 | 0.00 | 0.00 | 0.00 | 45 | 1013.9 |
| 20260903203030 | 91 | 65 | 3.0 | 9.0 | 0.00 | 0.00 | 0.00 | 45 | 1014.1 |
| 20260903202047 | 91 | 72 | 2.0 | 6.0 | 0.00 | 0.00 | 0.00 | 44 | 1014.1 |
| 20260903201049 | 91 | 339 | 1.0 | 7.0 | 0.00 | 0.00 | 0.00 | 45 | 1014.3 |
| 20260903200032 | 90 | 63 | 1.0 | 6.0 | 0.00 | 0.00 | 0.00 | 45 | 1014.4 |
| 20260903195032 | 90 | 84 | 3.0 | 7.0 | 0.00 | 0.00 | 0.00 | 46 | 1014.4 |
| 20260903194032 | 90 | 75 | 2.0 | 9.0 | 0.00 | 0.00 | 0.00 | 46 | 1014.8 |
| 20260903193032 | 89 | 357 | 2.0 | 6.0 | 0.00 | 0.00 | 0.00 | 47 | 1015.1 |
| 20260903192030 | 89 | 45 | 2.0 | 7.0 | 0.00 | 0.00 | 0.00 | 47 | 1015.1 |
| 20260903191032 | 89 | 4 | 2.0 | 7.0 | 0.00 | 0.00 | 0.00 | 47 | 1015.5 |
| 20260903190032 | 89 | 58 | 3.0 | 12.0 | 0.00 | 0.00 | 0.00 | 47 | 1015.6 |
| 20260903185107 | 89 | 277 | 3.0 | 9.0 | 0.00 | 0.00 | 0.00 | 49 | 1015.6 |
| 20260903184032 | 88 | 342 | 1.0 | 9.0 | 0.00 | 0.00 | 0.00 | 51 | 1015.9 |
| 20260903183032 | 87 | 65 | 3.0 | 9.0 | 0.00 | 0.00 | 0.00 | 51 | 1016.3 |
| 20260903182032 | 87 | 5 | 1.0 | 7.0 | 0.00 | 0.00 | 0.00 | 52 | 1016.3 |
| 20260903181030 | 86 | 40 | 3.0 | 9.0 | 0.00 | 0.00 | 0.00 | 53 | 1016.5 |
| 20260903180032 | 86 | 87 | 3.0 | 12.0 | 0.00 | 0.00 | 0.00 | 53 | 1016.7 |
| 20260903175032 | 86 | 38 | 3.0 | 7.0 | 0.00 | 0.00 | 0.00 | 55 | 1016.7 |
| 20260903174032 | 85 | 17 | 3.0 | 9.0 | 0.00 | 0.00 | 0.00 | 56 | 1016.9 |
| 20260903173049 | 84 | 33 | 2.0 | 7.0 | 0.00 | 0.00 | 0.00 | 58 | 1016.9 |
| 20260903172032 | 84 | 6 | 2.0 | 6.0 | 0.00 | 0.00 | 0.00 | 58 | 1016.9 |
| 20260903171049 | 84 | 11 | 2.0 | 9.0 | 0.00 | 0.00 | 0.00 | 58 | 1016.9 |
| 20260903170030 | 84 | 15 | 2.0 | 6.0 | 0.00 | 0.00 | 0.00 | 59 | 1016.8 |
| 20260903165032 | 83 | 44 | 0.0 | 3.0 | 0.00 | 0.00 | 0.00 | 60 | 1016.8 |
| 20260903164106 | 83 | 47 | 1.0 | 7.0 | 0.00 | 0.00 | 0.00 | 60 | 1016.8 |
| 20260903163032 | 83 | 0 | 0.0 | 0.0 | 0.00 | 0.00 | 0.00 | 60 | 1016.8 |
| 20260903162032 | 83 | 328 | 1.0 | 10.0 | 0.00 | 0.00 | 0.00 | 61 | 1016.8 |
| 20260903161107 | 83 | 278 | 0.0 | 3.0 | 0.00 | 0.00 | 0.00 | 62 | 1016.8 |
| 20260903160032 | 82 | 0 | 0.0 | 0.0 | 0.00 | 0.00 | 0.00 | 62 | 1016.9 |
| 20260903155030 | 82 | 61 | 1.0 | 4.0 | 0.00 | 0.00 | 0.00 | 63 | 1016.9 |
| 20260903154049 | 81 | 64 | 1.0 | 3.0 | 0.00 | 0.00 | 0.00 | 64 | 1016.9 |
| 20260903153032 | 81 | 45 | 2.0 | 6.0 | 0.00 | 0.00 | 0.00 | 64 | 1016.9 |
| 20260903152049 | 81 | 49 | 2.0 | 6.0 | 0.00 | 0.00 | 0.00 | 64 | 1016.9 |
| 20260903151032 | 80 | 64 | 4.0 | 7.0 | 0.00 | 0.00 | 0.00 | 65 | 1017.0 |
| 20260903150032 | 79 | 66 | 1.0 | 7.0 | 0.00 | 0.00 | 0.00 | 66 | 1017.1 |
| 20260903145030 | 79 | 32 | 0.0 | 1.0 | 0.00 | 0.00 | 0.00 | 66 | 1017.1 |
| 20260903144032 | 78 | 0 | 0.0 | 0.0 | 0.00 | 0.00 | 0.00 | 68 | 1017.1 |
| 20260903143049 | 78 | 0 | 0.0 | 0.0 | 0.00 | 0.00 | 0.00 | 70 | 1017.3 |
| 20260903142049 | 77 | 283 | 0.0 | 1.0 | 0.00 | 0.00 | 0.00 | 71 | 1017.3 |
| 20260903141030 | 77 | 280 | 0.0 | 3.0 | 0.00 | 0.00 | 0.00 | 71 | 1017.3 |
| 20260903140032 | 77 | 277 | 3.0 | 6.0 | 0.00 | 0.00 | 0.00 | 71 | 1017.0 |
| 20260903135032 | 78 | 278 | 2.0 | 9.0 | 0.00 | 0.00 | 0.00 | 71 | 1017.0 |
| 20260903134030 | 78 | 270 | 3.0 | 9.0 | 0.00 | 0.00 | 0.00 | 71 | 1016.8 |
| 20260903133032 | 78 | 276 | 4.0 | 7.0 | 0.00 | 0.00 | 0.00 | 71 | 1016.4 |
| 20260903132032 | 79 | 274 | 4.0 | 9.0 | 0.00 | 0.00 | 0.00 | 72 | 1016.4 |
| 20260903131032 | 79 | 87 | 3.0 | 7.0 | 0.00 | 0.00 | 0.00 | 70 | 1016.0 |
| 20260903130032 | 80 | 75 | 4.0 | 7.0 | 0.00 | 0.00 | 0.00 | 67 | 1015.8 |
| 20260903125032 | 80 | 78 | 4.0 | 6.0 | 0.00 | 0.00 | 0.00 | 66 | 1015.8 |
| 20260903124032 | 80 | 82 | 5.0 | 9.0 | 0.00 | 0.00 | 0.00 | 64 | 1015.5 |
| 20260903123030 | 81 | 68 | 1.0 | 6.0 | 0.00 | 0.00 | 0.00 | 63 | 1015.2 |
| 20260903122032 | 81 | 11 | 2.0 | 7.0 | 0.00 | 0.00 | 0.00 | 63 | 1015.2 |
| 20260903121032 | 80 | 35 | 2.0 | 6.0 | 0.00 | 0.00 | 0.00 | 64 | 1015.3 |
| 20260903120032 | 80 | 53 | 2.0 | 7.0 | 0.00 | 0.00 | 0.00 | 64 | 1015.1 |
| 20260903115049 | 80 | 31 | 1.0 | 6.0 | 0.00 | 0.00 | 0.00 | 66 | 1015.1 |
| 20260903114032 | 80 | 25 | 3.0 | 7.0 | 0.00 | 0.00 | 0.00 | 67 | 1015.0 |
| 20260903113032 | 80 | 82 | 0.0 | 4.0 | 0.00 | 0.00 | 0.00 | 67 | 1015.0 |
| 20260903112030 | 80 | 85 | 1.0 | 7.0 | 0.00 | 0.00 | 0.00 | 67 | 1015.0 |
| 20260903111032 | 80 | 0 | 0.0 | 0.0 | 0.00 | 0.00 | 0.00 | 67 | 1015.0 |
| 20260903105032 | 80 | 79 | 0.0 | 1.0 | 0.00 | 0.00 | 0.00 | 67 | 1015.0 |
| 20260903104032 | 80 | 79 | 0.0 | 3.0 | 0.00 | 0.00 | 0.00 | 66 | 1015.1 |